﻿_id,Serial No,Timestamp,Temperature,Humidity,latitude,longitude
1,1392904597,2014-02-20T19:26:37,29.4,73,13.00361,77.61818
2,1392904853,2014-02-20T19:30:53,30.1,61,13.00361,77.61818
3,1392904956,2014-02-20T19:32:36,30.4,59,13.00361,77.61818
4,1392905507,2014-02-20T19:41:47,30.4,49,13.00361,77.61818
5,1392905712,2014-02-20T19:45:12,30,57,13.00361,77.61818
6,1392906064,2014-02-20T19:51:04,30.8,59,13.00361,77.61818
7,1392906371,2014-02-20T19:56:11,30.2,48,13.00361,77.61818
8,1392906680,2014-02-20T20:01:20,29,50,13.00361,77.61818
9,1392906936,2014-02-20T20:05:36,28.3,51,13.00361,77.61818
10,1392907244,2014-02-20T20:10:44,27.6,52,13.00361,77.61818
11,1392907551,2014-02-20T20:15:51,27,53,13.00361,77.61818
12,1392907858,2014-02-20T20:20:58,26.6,54,13.00361,77.61818
13,1392908167,2014-02-20T20:26:07,26.2,55,13.00361,77.61818
14,1392908475,2014-02-20T20:31:15,25.9,55,13.00361,77.61818
15,1392908781,2014-02-20T20:36:21,25.6,56,13.00361,77.61818
16,1392909089,2014-02-20T20:41:29,25.4,56,13.00361,77.61818
17,1392909396,2014-02-20T20:46:36,25.2,57,13.00361,77.61818
18,1392909704,2014-02-20T20:51:44,25.1,57,13.00361,77.61818
19,1392910012,2014-02-20T20:56:52,24.9,57,13.00361,77.61818
20,1392910319,2014-02-20T21:01:59,24.8,58,13.00361,77.61818
21,1392910620,2014-02-20T21:07:00,24.8,58,13.00361,77.61818
22,1392910877,2014-02-20T21:11:17,24.6,58,13.00361,77.61818
23,1392911184,2014-02-20T21:16:24,24.6,58,13.00361,77.61818
24,1392911492,2014-02-20T21:21:32,24.5,59,13.00361,77.61818
25,1392911800,2014-02-20T21:26:40,24.4,59,13.00361,77.61818
26,1392912107,2014-02-20T21:31:47,24.3,59,13.00361,77.61818
27,1392912415,2014-02-20T21:36:55,24.3,60,13.00361,77.61818
28,1392912723,2014-02-20T21:42:03,24.2,60,13.00361,77.61818
29,1392913030,2014-02-20T21:47:10,24.2,61,13.00361,77.61818
30,1392913338,2014-02-20T21:52:18,24.1,61,13.00361,77.61818
31,1392913645,2014-02-20T21:57:25,24.1,61,13.00361,77.61818
32,1392913953,2014-02-20T22:02:33,24,62,13.00361,77.61818
33,1392914261,2014-02-20T22:07:41,24,62,13.00361,77.61818
34,1392914568,2014-02-20T22:12:48,23.9,62,13.00361,77.61818
35,1392914876,2014-02-20T22:17:56,23.9,63,13.00361,77.61818
36,1392915183,2014-02-20T22:23:03,23.8,63,13.00361,77.61818
37,1392915491,2014-02-20T22:28:11,23.8,63,13.00361,77.61818
38,1392915799,2014-02-20T22:33:19,23.7,63,13.00361,77.61818
39,1392916105,2014-02-20T22:38:25,23.6,64,13.00361,77.61818
40,1392916413,2014-02-20T22:43:33,23.6,64,13.00361,77.61818
41,1392916721,2014-02-20T22:48:41,23.6,64,13.00361,77.61818
42,1392917028,2014-02-20T22:53:48,23.5,64,13.00361,77.61818
43,1392917284,2014-02-20T22:58:04,23.4,65,13.00361,77.61818
44,1392917592,2014-02-20T23:03:12,23.4,65,13.00361,77.61818
45,1392917900,2014-02-20T23:08:20,23.3,65,13.00361,77.61818
46,1392918207,2014-02-20T23:13:27,23.3,65,13.00361,77.61818
47,1392918516,2014-02-20T23:18:36,23.2,66,13.00361,77.61818
48,1392918824,2014-02-20T23:23:44,23.2,66,13.00361,77.61818
49,1392919130,2014-02-20T23:28:50,23.1,67,13.00361,77.61818
50,1392919438,2014-02-20T23:33:58,23,67,13.00361,77.61818
51,1392919746,2014-02-20T23:39:06,23,68,13.00361,77.61818
52,1392920054,2014-02-20T23:44:14,22.9,68,13.00361,77.61818
53,1392920361,2014-02-20T23:49:21,22.9,68,13.00361,77.61818
54,1392920668,2014-02-20T23:54:28,22.8,69,13.00361,77.61818
55,1392920976,2014-02-20T23:59:36,22.7,69,13.00361,77.61818
56,1392921232,2014-02-21T00:03:52,22.7,70,13.00361,77.61818
57,1392921540,2014-02-21T00:09:00,22.6,70,13.00361,77.61818
58,1392921847,2014-02-21T00:14:07,22.6,70,13.00361,77.61818
59,1392922155,2014-02-21T00:19:15,22.5,70,13.00361,77.61818
60,1392922463,2014-02-21T00:24:23,22.5,71,13.00361,77.61818
61,1392922771,2014-02-21T00:29:31,22.5,71,13.00361,77.61818
62,1392923079,2014-02-21T00:34:39,22.4,72,13.00361,77.61818
63,1392923386,2014-02-21T00:39:46,22.3,72,13.00361,77.61818
64,1392923693,2014-02-21T00:44:53,22.3,73,13.00361,77.61818
65,1392924001,2014-02-21T00:50:01,22.2,73,13.00361,77.61818
66,1392924308,2014-02-21T00:55:08,22.2,73,13.00361,77.61818
67,1392924616,2014-02-21T01:00:16,22.2,73,13.00361,77.61818
68,1392924924,2014-02-21T01:05:24,22.2,73,13.00361,77.61818
69,1392925180,2014-02-21T01:09:40,22.2,73,13.00361,77.61818
70,1392925488,2014-02-21T01:14:48,22.2,73,13.00361,77.61818
71,1392925795,2014-02-21T01:19:55,22.2,73,13.00361,77.61818
72,1392926103,2014-02-21T01:25:03,22.1,74,13.00361,77.61818
73,1392926410,2014-02-21T01:30:10,22.1,74,13.00361,77.61818
74,1392926718,2014-02-21T01:35:18,22.1,74,13.00361,77.61818
75,1392927025,2014-02-21T01:40:25,22,74,13.00361,77.61818
76,1392927332,2014-02-21T01:45:32,22,74,13.00361,77.61818
77,1392927640,2014-02-21T01:50:40,21.9,74,13.00361,77.61818
78,1392927948,2014-02-21T01:55:48,21.9,74,13.00361,77.61818
79,1392928255,2014-02-21T02:00:55,21.9,75,13.00361,77.61818
80,1392928563,2014-02-21T02:06:03,21.8,75,13.00361,77.61818
81,1392928870,2014-02-21T02:11:10,21.8,75,13.00361,77.61818
82,1392929178,2014-02-21T02:16:18,21.8,75,13.00361,77.61818
83,1392929435,2014-02-21T02:20:35,21.8,75,13.00361,77.61818
84,1392929743,2014-02-21T02:25:43,21.8,75,13.00361,77.61818
85,1392930050,2014-02-21T02:30:50,21.8,75,13.00361,77.61818
86,1392930357,2014-02-21T02:35:57,21.8,75,13.00361,77.61818
87,1392930665,2014-02-21T02:41:05,21.7,75,13.00361,77.61818
88,1392930972,2014-02-21T02:46:12,21.7,75,13.00361,77.61818
89,1392931281,2014-02-21T02:51:21,21.7,75,13.00361,77.61818
90,1392931589,2014-02-21T02:56:29,21.7,75,13.00361,77.61818
91,1392931895,2014-02-21T03:01:35,21.7,75,13.00361,77.61818
92,1392932203,2014-02-21T03:06:43,21.7,75,13.00361,77.61818
93,1392932510,2014-02-21T03:11:50,21.6,75,13.00361,77.61818
94,1392932766,2014-02-21T03:16:06,21.6,75,13.00361,77.61818
95,1392933075,2014-02-21T03:21:15,21.6,75,13.00361,77.61818
96,1392933382,2014-02-21T03:26:22,21.5,75,13.00361,77.61818
97,1392933690,2014-02-21T03:31:30,21.5,75,13.00361,77.61818
98,1392933997,2014-02-21T03:36:37,21.5,75,13.00361,77.61818
99,1392934305,2014-02-21T03:41:45,21.5,76,13.00361,77.61818
100,1392934613,2014-02-21T03:46:53,21.4,76,13.00361,77.61818
101,1392934920,2014-02-21T03:52:00,21.4,76,13.00361,77.61818
102,1392935228,2014-02-21T03:57:08,21.4,76,13.00361,77.61818
103,1392935534,2014-02-21T04:02:14,21.4,76,13.00361,77.61818
104,1392935842,2014-02-21T04:07:22,21.4,76,13.00361,77.61818
105,1392936151,2014-02-21T04:12:31,21.4,76,13.00361,77.61818
106,1392936407,2014-02-21T04:16:47,21.4,76,13.00361,77.61818
107,1392936715,2014-02-21T04:21:55,21.4,76,13.00361,77.61818
108,1392937022,2014-02-21T04:27:02,21.4,76,13.00361,77.61818
109,1392937330,2014-02-21T04:32:10,21.3,76,13.00361,77.61818
110,1392937637,2014-02-21T04:37:17,21.3,76,13.00361,77.61818
111,1392937945,2014-02-21T04:42:25,21.3,76,13.00361,77.61818
112,1392938253,2014-02-21T04:47:33,21.2,76,13.00361,77.61818
113,1392938560,2014-02-21T04:52:40,21.2,76,13.00361,77.61818
114,1392938868,2014-02-21T04:57:48,21.2,76,13.00361,77.61818
115,1392939176,2014-02-21T05:02:56,21.2,76,13.00361,77.61818
116,1392939483,2014-02-21T05:08:03,21.2,76,13.00361,77.61818
117,1392939791,2014-02-21T05:13:11,21.2,76,13.00361,77.61818
118,1392940047,2014-02-21T05:17:27,21.1,76,13.00361,77.61818
119,1392940354,2014-02-21T05:22:34,21.1,76,13.00361,77.61818
120,1392940661,2014-02-21T05:27:41,21,76,13.00361,77.61818
121,1392940969,2014-02-21T05:32:49,21,76,13.00361,77.61818
122,1392941277,2014-02-21T05:37:57,21,76,13.00361,77.61818
123,1392941584,2014-02-21T05:43:04,20.9,76,13.00361,77.61818
124,1392941892,2014-02-21T05:48:12,20.9,76,13.00361,77.61818
125,1392942199,2014-02-21T05:53:19,20.9,77,13.00361,77.61818
126,1392942507,2014-02-21T05:58:27,20.9,77,13.00361,77.61818
127,1392942815,2014-02-21T06:03:35,20.8,77,13.00361,77.61818
128,1392943122,2014-02-21T06:08:42,20.7,77,13.00361,77.61818
129,1392943430,2014-02-21T06:13:50,20.7,77,13.00361,77.61818
130,1392943686,2014-02-21T06:18:06,20.7,77,13.00361,77.61818
131,1392943994,2014-02-21T06:23:14,20.7,77,13.00361,77.61818
132,1392944302,2014-02-21T06:28:22,20.7,77,13.00361,77.61818
133,1392944609,2014-02-21T06:33:29,20.7,77,13.00361,77.61818
134,1392944917,2014-02-21T06:38:37,20.7,77,13.00361,77.61818
135,1392945224,2014-02-21T06:43:44,20.6,77,13.00361,77.61818
136,1392945532,2014-02-21T06:48:52,20.6,77,13.00361,77.61818
137,1392945840,2014-02-21T06:54:00,20.6,78,13.00361,77.61818
138,1392946147,2014-02-21T06:59:07,20.6,78,13.00361,77.61818
139,1392946455,2014-02-21T07:04:15,20.6,78,13.00361,77.61818
140,1392946762,2014-02-21T07:09:22,20.6,78,13.00361,77.61818
141,1392947070,2014-02-21T07:14:30,20.6,78,13.00361,77.61818
142,1392947326,2014-02-21T07:18:46,20.5,78,13.00361,77.61818
143,1392947633,2014-02-21T07:23:53,20.5,78,13.00361,77.61818
144,1392947941,2014-02-21T07:29:01,20.5,78,13.00361,77.61818
145,1392948249,2014-02-21T07:34:09,20.5,78,13.00361,77.61818
146,1392948557,2014-02-21T07:39:17,20.6,78,13.00361,77.61818
147,1392948864,2014-02-21T07:44:24,20.6,78,13.00361,77.61818
148,1392949171,2014-02-21T07:49:31,20.6,78,13.00361,77.61818
149,1392949480,2014-02-21T07:54:40,20.6,78,13.00361,77.61818
150,1392949787,2014-02-21T07:59:47,20.7,78,13.00361,77.61818
151,1392950094,2014-02-21T08:04:54,20.8,78,13.00361,77.61818
152,1392950402,2014-02-21T08:10:02,20.9,78,13.00361,77.61818
153,1392950709,2014-02-21T08:15:09,21,78,13.00361,77.61818
154,1392950966,2014-02-21T08:19:26,21.1,78,13.00361,77.61818
155,1392951273,2014-02-21T08:24:33,21.1,78,13.00361,77.61818
156,1392951581,2014-02-21T08:29:41,21.2,78,13.00361,77.61818
157,1392951888,2014-02-21T08:34:48,21.3,77,13.00361,77.61818
158,1392952196,2014-02-21T08:39:56,21.4,77,13.00361,77.61818
159,1392952504,2014-02-21T08:45:04,21.5,77,13.00361,77.61818
160,1392952811,2014-02-21T08:50:11,21.6,77,13.00361,77.61818
161,1392953119,2014-02-21T08:55:19,21.7,77,13.00361,77.61818
162,1392953428,2014-02-21T09:00:28,21.8,76,13.00361,77.61818
163,1392953735,2014-02-21T09:05:35,21.9,76,13.00361,77.61818
164,1392954042,2014-02-21T09:10:42,22,76,13.00361,77.61818
165,1392954093,2014-02-21T09:11:33,22,76,13.00361,77.61818
166,1392954401,2014-02-21T09:16:41,22.1,76,13.00361,77.61818
167,1392954708,2014-02-21T09:21:48,22.1,76,13.00361,77.61818
168,1392955016,2014-02-21T09:26:56,22.2,75,13.00361,77.61818
169,1392955323,2014-02-21T09:32:03,22.3,75,13.00361,77.61818
170,1392955631,2014-02-21T09:37:11,22.3,75,13.00361,77.61818
171,1392955785,2014-02-21T09:39:45,22.4,75,13.00361,77.61818
172,1392956092,2014-02-21T09:44:52,22.4,75,13.00361,77.61818
173,1392956399,2014-02-21T09:49:59,22.5,74,13.00361,77.61818
174,1392956708,2014-02-21T09:55:08,22.5,74,13.00361,77.61818
175,1392957015,2014-02-21T10:00:15,22.6,74,13.00361,77.61818
176,1392957320,2014-02-21T10:05:20,22.6,75,13.00361,77.61818
177,1392957628,2014-02-21T10:10:28,22.7,74,13.00361,77.61818
178,1392957937,2014-02-21T10:15:37,22.8,74,13.00361,77.61818
179,1392958245,2014-02-21T10:20:45,22.8,74,13.00361,77.61818
180,1392958552,2014-02-21T10:25:52,22.9,74,13.00361,77.61818
181,1392958860,2014-02-21T10:31:00,23,74,13.00361,77.61818
182,1392959115,2014-02-21T10:35:15,23,73,13.00361,77.61818
183,1392959423,2014-02-21T10:40:23,23.1,73,13.00361,77.61818
184,1392959733,2014-02-21T10:45:33,23.2,73,13.00361,77.61818
185,1392960040,2014-02-21T10:50:40,23.2,73,13.00361,77.61818
186,1392960347,2014-02-21T10:55:47,23.3,72,13.00361,77.61818
187,1392960655,2014-02-21T11:00:55,23.3,72,13.00361,77.61818
188,1392960962,2014-02-21T11:06:02,23.5,72,13.00361,77.61818
189,1392961270,2014-02-21T11:11:10,23.6,72,13.00361,77.61818
190,1392961578,2014-02-21T11:16:18,23.6,71,13.00361,77.61818
191,1392961886,2014-02-21T11:21:26,23.7,71,13.00361,77.61818
192,1392962193,2014-02-21T11:26:33,23.8,71,13.00361,77.61818
193,1392962500,2014-02-21T11:31:40,23.9,70,13.00361,77.61818
194,1392962757,2014-02-21T11:35:57,23.9,70,13.00361,77.61818
195,1392963064,2014-02-21T11:41:04,24,70,13.00361,77.61818
196,1392963372,2014-02-21T11:46:12,24.1,70,13.00361,77.61818
197,1392963679,2014-02-21T11:51:19,24.2,70,13.00361,77.61818
198,1392963987,2014-02-21T11:56:27,24.3,69,13.00361,77.61818
199,1392964295,2014-02-21T12:01:35,24.4,69,13.00361,77.61818
200,1392964602,2014-02-21T12:06:42,24.4,68,13.00361,77.61818
201,1392964910,2014-02-21T12:11:50,24.4,68,13.00361,77.61818
202,1392965218,2014-02-21T12:16:58,24.4,68,13.00361,77.61818
203,1392965525,2014-02-21T12:22:05,24.5,67,13.00361,77.61818
204,1392965833,2014-02-21T12:27:13,24.6,67,13.00361,77.61818
205,1392966140,2014-02-21T12:32:20,24.7,67,13.00361,77.61818
206,1392966448,2014-02-21T12:37:28,24.8,66,13.00361,77.61818
207,1392966704,2014-02-21T12:41:44,24.8,66,13.00361,77.61818
208,1392967012,2014-02-21T12:46:52,24.8,66,13.00361,77.61818
209,1392967320,2014-02-21T12:52:00,24.8,66,13.00361,77.61818
210,1392967627,2014-02-21T12:57:07,24.8,65,13.00361,77.61818
211,1392967935,2014-02-21T13:02:15,24.9,66,13.00361,77.61818
212,1392968242,2014-02-21T13:07:22,25,65,13.00361,77.61818
213,1392968550,2014-02-21T13:12:30,25.2,64,13.00361,77.61818
214,1392968858,2014-02-21T13:17:38,25.3,64,13.00361,77.61818
215,1392969165,2014-02-21T13:22:45,25.4,63,13.00361,77.61818
216,1392969472,2014-02-21T13:27:52,25.5,63,13.00361,77.61818
217,1392969779,2014-02-21T13:32:59,25.5,63,13.00361,77.61818
218,1392970088,2014-02-21T13:38:08,25.6,62,13.00361,77.61818
219,1392970344,2014-02-21T13:42:24,25.7,61,13.00361,77.61818
220,1392970651,2014-02-21T13:47:31,25.7,60,13.00361,77.61818
221,1392970959,2014-02-21T13:52:39,25.8,60,13.00361,77.61818
222,1392971266,2014-02-21T13:57:46,25.9,60,13.00361,77.61818
223,1392971574,2014-02-21T14:02:54,26,60,13.00361,77.61818
224,1392971882,2014-02-21T14:08:02,26,60,13.00361,77.61818
225,1392972189,2014-02-21T14:13:09,26.1,59,13.00361,77.61818
226,1392972497,2014-02-21T14:18:17,26.2,59,13.00361,77.61818
227,1392972804,2014-02-21T14:23:24,26.2,58,13.00361,77.61818
228,1392973112,2014-02-21T14:28:32,26.3,58,13.00361,77.61818
229,1392973420,2014-02-21T14:33:40,26.3,58,13.00361,77.61818
230,1392973676,2014-02-21T14:37:56,26.4,58,13.00361,77.61818
231,1392973984,2014-02-21T14:43:04,26.4,58,13.00361,77.61818
232,1392974291,2014-02-21T14:48:11,26.4,57,13.00361,77.61818
233,1392974599,2014-02-21T14:53:19,26.4,57,13.00361,77.61818
234,1392974906,2014-02-21T14:58:26,26.5,57,13.00361,77.61818
235,1392975214,2014-02-21T15:03:34,26.5,57,13.00361,77.61818
236,1392975522,2014-02-21T15:08:42,26.6,56,13.00361,77.61818
237,1392975829,2014-02-21T15:13:49,26.7,56,13.00361,77.61818
238,1392976137,2014-02-21T15:18:57,27,55,13.00361,77.61818
239,1392976445,2014-02-21T15:24:05,27,55,13.00361,77.61818
240,1392976752,2014-02-21T15:29:12,27,55,13.00361,77.61818
241,1392977060,2014-02-21T15:34:20,27,54,13.00361,77.61818
242,1392977316,2014-02-21T15:38:36,27,54,13.00361,77.61818
243,1392977624,2014-02-21T15:43:44,26.9,54,13.00361,77.61818
244,1392977931,2014-02-21T15:48:51,26.9,54,13.00361,77.61818
245,1392978239,2014-02-21T15:53:59,26.9,53,13.00361,77.61818
246,1392978546,2014-02-21T15:59:06,26.9,54,13.00361,77.61818
247,1392978853,2014-02-21T16:04:13,26.9,54,13.00361,77.61818
248,1392979162,2014-02-21T16:09:22,26.9,54,13.00361,77.61818
249,1392979469,2014-02-21T16:14:29,26.9,54,13.00361,77.61818
250,1392979777,2014-02-21T16:19:37,26.9,54,13.00361,77.61818
251,1392980085,2014-02-21T16:24:45,26.9,53,13.00361,77.61818
252,1392980392,2014-02-21T16:29:52,27.1,53,13.00361,77.61818
253,1392980700,2014-02-21T16:35:00,27.1,53,13.00361,77.61818
254,1392980955,2014-02-21T16:39:15,27.1,52,13.00361,77.61818
255,1392981263,2014-02-21T16:44:23,27.1,52,13.00361,77.61818
256,1392981570,2014-02-21T16:49:30,27.1,52,13.00361,77.61818
257,1392981878,2014-02-21T16:54:38,27,52,13.00361,77.61818
258,1392982186,2014-02-21T16:59:46,27,52,13.00361,77.61818
259,1392982493,2014-02-21T17:04:53,27,52,13.00361,77.61818
260,1392982801,2014-02-21T17:10:01,26.9,52,13.00361,77.61818
261,1392983109,2014-02-21T17:15:09,26.9,52,13.00361,77.61818
262,1392983416,2014-02-21T17:20:16,26.9,52,13.00361,77.61818
263,1392983724,2014-02-21T17:25:24,26.9,52,13.00361,77.61818
264,1392984031,2014-02-21T17:30:31,26.8,53,13.00361,77.61818
265,1392984339,2014-02-21T17:35:39,26.8,53,13.00361,77.61818
266,1392984595,2014-02-21T17:39:55,26.8,53,13.00361,77.61818
267,1392984903,2014-02-21T17:45:03,26.8,54,13.00361,77.61818
268,1392985211,2014-02-21T17:50:11,26.8,54,13.00361,77.61818
269,1392985518,2014-02-21T17:55:18,26.7,53,13.00361,77.61818
270,1392985826,2014-02-21T18:00:26,26.7,53,13.00361,77.61818
271,1392986133,2014-02-21T18:05:33,26.7,54,13.00361,77.61818
272,1392986440,2014-02-21T18:10:40,26.6,54,13.00361,77.61818
273,1392986748,2014-02-21T18:15:48,26.5,54,13.00361,77.61818
274,1392987056,2014-02-21T18:20:56,26.5,54,13.00361,77.61818
275,1392987364,2014-02-21T18:26:04,26.4,54,13.00361,77.61818
276,1392987672,2014-02-21T18:31:12,26.3,54,13.00361,77.61818
277,1392987979,2014-02-21T18:36:19,26.3,54,13.00361,77.61818
278,1392988287,2014-02-21T18:41:27,26.2,54,13.00361,77.61818
279,1392988594,2014-02-21T18:46:34,26.2,54,13.00361,77.61818
280,1392988851,2014-02-21T18:50:51,26.2,55,13.00361,77.61818
281,1392989158,2014-02-21T18:55:58,26.1,55,13.00361,77.61818
282,1392989466,2014-02-21T19:01:06,26.1,55,13.00361,77.61818
283,1392989774,2014-02-21T19:06:14,26.1,54,13.00361,77.61818
284,1392990081,2014-02-21T19:11:21,26.1,54,13.00361,77.61818
285,1392990389,2014-02-21T19:16:29,26,55,13.00361,77.61818
286,1392990695,2014-02-21T19:21:35,26,55,13.00361,77.61818
287,1392991003,2014-02-21T19:26:43,26,55,13.00361,77.61818
288,1392991312,2014-02-21T19:31:52,25.9,55,13.00361,77.61818
289,1392991619,2014-02-21T19:36:59,25.9,55,13.00361,77.61818
290,1392991926,2014-02-21T19:42:06,25.9,55,13.00361,77.61818
291,1392992182,2014-02-21T19:46:22,25.8,55,13.00361,77.61818
292,1392992490,2014-02-21T19:51:30,25.8,55,13.00361,77.61818
293,1392992798,2014-02-21T19:56:38,25.8,55,13.00361,77.61818
294,1392993106,2014-02-21T20:01:46,25.8,55,13.00361,77.61818
295,1392993414,2014-02-21T20:06:54,25.8,56,13.00361,77.61818
296,1392993721,2014-02-21T20:12:01,25.8,56,13.00361,77.61818
297,1392994029,2014-02-21T20:17:09,25.8,56,13.00361,77.61818
298,1392994337,2014-02-21T20:22:17,25.8,56,13.00361,77.61818
299,1392994644,2014-02-21T20:27:24,25.8,56,13.00361,77.61818
300,1392994952,2014-02-21T20:32:32,25.8,55,13.00361,77.61818
301,1392995259,2014-02-21T20:37:39,25.7,56,13.00361,77.61818
302,1392995515,2014-02-21T20:41:55,25.7,56,13.00361,77.61818
303,1392995822,2014-02-21T20:47:02,25.7,56,13.00361,77.61818
304,1392996130,2014-02-21T20:52:10,25.6,56,13.00361,77.61818
305,1392996438,2014-02-21T20:57:18,25.6,56,13.00361,77.61818
306,1392996745,2014-02-21T21:02:25,25.5,56,13.00361,77.61818
307,1392997053,2014-02-21T21:07:33,25.5,56,13.00361,77.61818
308,1392997361,2014-02-21T21:12:41,25.5,56,13.00361,77.61818
309,1392997668,2014-02-21T21:17:48,25.4,56,13.00361,77.61818
310,1392997976,2014-02-21T21:22:56,25.3,56,13.00361,77.61818
311,1392998283,2014-02-21T21:28:03,25.2,57,13.00361,77.61818
312,1392998591,2014-02-21T21:33:11,25.2,57,13.00361,77.61818
313,1392998899,2014-02-21T21:38:19,25.1,57,13.00361,77.61818
314,1392999155,2014-02-21T21:42:35,25,57,13.00361,77.61818
315,1392999463,2014-02-21T21:47:43,24.9,57,13.00361,77.61818
316,1392999770,2014-02-21T21:52:50,24.9,57,13.00361,77.61818
317,1393000078,2014-02-21T21:57:58,24.8,57,13.00361,77.61818
318,1393000385,2014-02-21T22:03:05,24.8,57,13.00361,77.61818
319,1393000693,2014-02-21T22:08:13,24.8,58,13.00361,77.61818
320,1393001001,2014-02-21T22:13:21,24.7,58,13.00361,77.61818
321,1393001308,2014-02-21T22:18:28,24.6,58,13.00361,77.61818
322,1393001615,2014-02-21T22:23:35,24.6,58,13.00361,77.61818
323,1393001922,2014-02-21T22:28:42,24.5,59,13.00361,77.61818
324,1393002230,2014-02-21T22:33:50,24.5,59,13.00361,77.61818
325,1393002538,2014-02-21T22:38:58,24.4,59,13.00361,77.61818
326,1393002795,2014-02-21T22:43:15,24.3,59,13.00361,77.61818
327,1393003103,2014-02-21T22:48:23,24.3,59,13.00361,77.61818
328,1393003409,2014-02-21T22:53:29,24.2,60,13.00361,77.61818
329,1393003717,2014-02-21T22:58:37,24.2,60,13.00361,77.61818
330,1393004025,2014-02-21T23:03:45,24.1,60,13.00361,77.61818
331,1393004332,2014-02-21T23:08:52,24,60,13.00361,77.61818
332,1393004640,2014-02-21T23:14:00,24,60,13.00361,77.61818
333,1393004947,2014-02-21T23:19:07,23.9,60,13.00361,77.61818
334,1393005256,2014-02-21T23:24:16,23.9,60,13.00361,77.61818
335,1393005564,2014-02-21T23:29:24,23.8,60,13.00361,77.61818
336,1393005870,2014-02-21T23:34:30,23.8,61,13.00361,77.61818
337,1393006127,2014-02-21T23:38:47,23.7,61,13.00361,77.61818
338,1393006434,2014-02-21T23:43:54,23.7,61,13.00361,77.61818
339,1393006742,2014-02-21T23:49:02,23.6,61,13.00361,77.61818
340,1393007049,2014-02-21T23:54:09,23.6,61,13.00361,77.61818
341,1393007357,2014-02-21T23:59:17,23.5,62,13.00361,77.61818
342,1393007665,2014-02-22T00:04:25,23.5,62,13.00361,77.61818
343,1393007972,2014-02-22T00:09:32,23.4,62,13.00361,77.61818
344,1393008280,2014-02-22T00:14:40,23.4,63,13.00361,77.61818
345,1393008588,2014-02-22T00:19:48,23.4,63,13.00361,77.61818
346,1393008895,2014-02-22T00:24:55,23.3,63,13.00361,77.61818
347,1393009203,2014-02-22T00:30:03,23.3,63,13.00361,77.61818
348,1393009510,2014-02-22T00:35:10,23.3,64,13.00361,77.61818
349,1393009767,2014-02-22T00:39:27,23.2,64,13.00361,77.61818
350,1393010074,2014-02-22T00:44:34,23.2,64,13.00361,77.61818
351,1393010382,2014-02-22T00:49:42,23.1,65,13.00361,77.61818
352,1393010690,2014-02-22T00:54:50,23.1,65,13.00361,77.61818
353,1393010997,2014-02-22T00:59:57,23,65,13.00361,77.61818
354,1393011304,2014-02-22T01:05:04,23,66,13.00361,77.61818
355,1393011611,2014-02-22T01:10:11,23,66,13.00361,77.61818
356,1393011920,2014-02-22T01:15:20,22.9,67,13.00361,77.61818
357,1393012228,2014-02-22T01:20:28,22.9,67,13.00361,77.61818
358,1393012535,2014-02-22T01:25:35,22.8,67,13.00361,77.61818
359,1393012843,2014-02-22T01:30:43,22.8,67,13.00361,77.61818
360,1393013151,2014-02-22T01:35:51,22.8,68,13.00361,77.61818
361,1393013458,2014-02-22T01:40:58,22.7,68,13.00361,77.61818
362,1393013765,2014-02-22T01:46:05,22.7,68,13.00361,77.61818
363,1393014021,2014-02-22T01:50:21,22.7,68,13.00361,77.61818
364,1393014329,2014-02-22T01:55:29,22.7,68,13.00361,77.61818
365,1393014636,2014-02-22T02:00:36,22.7,69,13.00361,77.61818
366,1393014945,2014-02-22T02:05:45,22.7,69,13.00361,77.61818
367,1393015253,2014-02-22T02:10:53,22.7,69,13.00361,77.61818
368,1393015559,2014-02-22T02:15:59,22.7,69,13.00361,77.61818
369,1393015867,2014-02-22T02:21:07,22.6,69,13.00361,77.61818
370,1393016174,2014-02-22T02:26:14,22.6,70,13.00361,77.61818
371,1393016482,2014-02-22T02:31:22,22.5,70,13.00361,77.61818
372,1393016790,2014-02-22T02:36:30,22.5,70,13.00361,77.61818
373,1393017097,2014-02-22T02:41:37,22.4,71,13.00361,77.61818
374,1393017405,2014-02-22T02:46:45,22.4,71,13.00361,77.61818
375,1393017661,2014-02-22T02:51:01,22.4,71,13.00361,77.61818
376,1393017969,2014-02-22T02:56:09,22.3,71,13.00361,77.61818
377,1393018276,2014-02-22T03:01:16,22.3,72,13.00361,77.61818
378,1393018584,2014-02-22T03:06:24,22.3,72,13.00361,77.61818
379,1393018892,2014-02-22T03:11:32,22.2,72,13.00361,77.61818
380,1393019198,2014-02-22T03:16:38,22.2,72,13.00361,77.61818
381,1393019506,2014-02-22T03:21:46,22.2,73,13.00361,77.61818
382,1393019815,2014-02-22T03:26:55,22.1,73,13.00361,77.61818
383,1393020122,2014-02-22T03:32:02,22.1,73,13.00361,77.61818
384,1393020430,2014-02-22T03:37:10,22.1,73,13.00361,77.61818
385,1393020737,2014-02-22T03:42:17,22.1,73,13.00361,77.61818
386,1393021045,2014-02-22T03:47:25,22,73,13.00361,77.61818
387,1393021353,2014-02-22T03:52:33,22,73,13.00361,77.61818
388,1393021609,2014-02-22T03:56:49,22,74,13.00361,77.61818
389,1393021917,2014-02-22T04:01:57,21.9,74,13.00361,77.61818
390,1393022224,2014-02-22T04:07:04,21.9,74,13.00361,77.61818
391,1393022532,2014-02-22T04:12:12,21.9,74,13.00361,77.61818
392,1393022838,2014-02-22T04:17:18,21.8,74,13.00361,77.61818
393,1393023146,2014-02-22T04:22:26,21.8,74,13.00361,77.61818
394,1393023455,2014-02-22T04:27:35,21.8,74,13.00361,77.61818
395,1393023762,2014-02-22T04:32:42,21.7,75,13.00361,77.61818